Startseite
Über Mich
AHP4
Galerie
Sehschlangen
Tourenbuch
Bookmarks
Elektronik
Bewertung
Geschichten
[Tagesmessung] [Jahreswerte] [Information]

Messwerte vom 30.05.2022

Die letzten Messwerte von 23:58:46 Uhr:
KategorieMesswert
Temperatur [°C]6
Luftdruck [mBar]999
Sonneneinstrahlung0
Wind [km/h]0 aus
Niederschlag [l/m²]0
rel.Luftfeucht.90.8%
CO2 [ppm]698

Diagramme
Messwerte vom 30.05.2022
Tagesaggregation
KategorieMinimumMaximumSchnittSumme
Temperatur [°C]61911.2563
Luftdruck [mBar]995999996.7833
Sonneneinstrahlung243135.4396
Wind [km/h]12
rF [%]45.596.681.28
Niederschlag [l/m²]0
CO2 [ppm]401815572.6
Einordnung alsVegetationstag

Messungen an benachbarten Tagen: Zur Jahresaggregation 2022
Tabelle aller Messwerte
UhrzeitTemperatur [°C]Luftdruck [mBar]SonneWind [km/h]RichtungRegen [l/m²]rF [%]CO2 [ppm]
00:01:48 9 995 0 0 NW 0 96.6 669
00:04:47 9 995 0 0 SO 0 96.6 651
00:07:48 9 995 0 0 SO 0 96.6 625
00:10:48 9 995 0 0 SO 0 96.6 607
00:13:45 8 995 0 0 S 0 96.6 621
00:16:47 8 995 0 0 SW 0 96.6 628
00:19:46 8 995 0 0 S 0 96.6 633
00:22:46 8 995 0 0 SO 0 96.6 633
00:25:47 8 995 0 0 N 0 96.6 627
00:28:49 8 995 0 0 SO 0 96.6 627
00:31:46 8 995 0 0 O 0 96.6 624
00:34:46 8 995 0 0 SO 0 96.6 633
00:37:48 7 995 0 1 S 0 96.6 634
00:40:47 7 995 0 0 S 0 96.6 645
00:43:46 7 995 0 1 SO 0 96.6 650
00:46:46 7 995 0 0 N 0 96.6 652
00:49:46 7 995 0 0 N 0 96.6 656
00:52:46 7 995 0 0 W 0 96.6 659
00:55:48 7 995 0 0 SO 0 96.6 674
00:58:49 7 995 0 0 SO 0 96.6 679
01:01:47 7 995 0 0 SO 0 96.6 686
01:04:48 7 995 0 0 SO 0 96.6 679
01:07:48 7 995 0 0 SO 0 96.6 688
01:10:44 7 995 0 0 O 0 96.6 685
01:13:46 7 995 0 0 SO 0 96.6 695
01:16:46 6 995 0 0 SO 0 96.6 701
01:19:45 6 995 0 0 S 0 96.6 709
01:22:47 6 995 0 0 SO 0 96.6 712
01:25:45 6 995 0 0 O 0 96.6 715
01:28:46 7 995 0 0 SO 0 96.6 703
01:31:49 7 995 0 0 SO 0 96.6 708
01:34:46 7 995 0 0 SO 0 96.6 707
01:37:44 7 995 0 0 S 0 96.6 713
01:40:47 7 995 0 0 S 0 96.6 723
01:43:47 7 995 0 0 SO 0 96.6 729
01:46:46 7 995 0 0 SO 0 96.6 736
01:49:47 7 995 0 0 SW 0 96.6 722
01:52:44 7 995 0 0 S 0 96.6 728
01:55:45 7 995 0 0 S 0 96.6 732
01:58:45 7 995 0 0 S 0 96.6 736
02:01:49 7 995 0 0 SO 0 96.6 729
02:04:46 7 995 0 0 S 0 96.6 733
02:07:47 7 995 0 0 SW 0 96.6 738
02:10:45 7 995 0 0 S 0 96.6 747
02:13:45 7 995 0 0 S 0 96.6 744
02:16:46 7 995 0 0 S 0 96.6 745
02:19:50 7 995 0 0 SO 0 96.6 747
02:22:45 7 995 0 1 S 0 96.6 741
02:25:45 7 995 0 0 S 0 96.6 745
02:28:49 7 995 0 0 NO 0 96.6 752
02:31:47 7 995 0 1 SO 0 96.6 755
02:34:46 7 995 0 1 S 0 96.6 755
02:37:45 7 995 0 0 S 0 96.6 752
02:40:47 7 995 0 0 SO 0 96.6 759
02:43:47 7 995 0 1 SO 0 96.6 765
02:46:44 7 995 0 0 S 0 96.6 767
02:49:48 7 995 0 0 S 0 96.6 779
02:52:45 7 995 0 2 S 0 96.6 776
02:55:47 7 995 0 0 SW 0 96.6 777
02:58:45 7 995 0 1 SO 0 96.6 773
03:01:45 7 995 0 1 W 0 96.6 773
03:04:48 7 995 0 0 S 0 96.6 780
03:07:48 7 995 0 0 S 0 96.6 780
03:10:46 8 995 0 0 S 0 96.6 782
03:13:45 7 995 0 0 S 0 96.6 785
03:16:45 8 995 0 0 S 0 96.6 788
03:19:46 8 995 0 0 S 0 96.6 785
03:22:45 8 995 0 0 S 0 96.6 779
03:25:46 8 995 0 0 S 0 96.6 779
03:28:47 8 995 0 0 SO 0 96.6 775
03:31:48 8 995 0 0 SO 0 96.6 782
03:34:46 8 995 0 0 W 0 96.6 786
03:37:47 8 995 0 0 S 0 96.6 787
03:40:46 8 995 0 1 SO 0 96.6 782
03:43:47 8 995 0 0 SO 0 96.6 778
03:46:46 8 995 0 1 SW 0 96.6 781
03:49:45 8 995 0 2 S 0 96.6 787
03:52:46 8 995 0 0 SO 0 96.6 786
03:55:46 8 995 0 0 SO 0 96.6 788
03:58:47 7 995 0 0 SO 0 96.6 792
04:01:46 7 995 0 0 SW 0 96.6 785
04:04:47 7 995 0 0 SW 0 96.6 782
04:07:48 7 995 0 0 SO 0 96.6 780
04:10:48 7 995 0 0 SO 0 96.6 788
04:13:47 7 995 0 0 SO 0 96.6 790
04:16:45 7 995 0 0 SO 0 96.6 791
04:19:48 7 995 0 0 SO 0 96.6 791
04:22:47 7 995 0 0 SO 0 96.6 796
04:25:45 7 995 0 0 O 0 96.6 799
04:28:46 7 995 0 0 O 0 96.6 803
04:31:46 7 995 3 0 NW 0 96.6 800
04:34:49 7 995 4 0 NW 0 96.6 803
04:37:48 7 995 6 0 S 0 96.6 800
04:40:46 7 995 8 0 SO 0 96.6 793
04:43:47 7 995 10 0 SO 0 96.6 794
04:46:46 7 995 14 0 SO 0 96.6 794
04:49:50 7 995 18 0 SO 0 96.6 788
04:52:46 7 995 21 0 SO 0 96.6 779
04:55:49 7 995 23 0 SO 0 96.6 783
04:58:47 7 995 24 0 SO 0 96.6 794
05:01:47 7 995 30 0 SO 0 96.6 797
05:04:49 7 995 38 0 NO 0 96.6 794
05:07:48 7 995 46 0 S 0 96.6 797
05:10:48 7 995 58 0 S 0 96.6 794
05:13:45 7 995 72 0 S 0 96.6 794
05:16:45 7 995 85 1 S 0 96.6 800
05:19:49 7 995 92 0 S 0 96.6 795
05:22:46 7 995 95 0 S 0 96.6 790
05:25:47 7 995 98 0 SW 0 96.6 779
05:28:46 7 995 102 0 S 0 96.6 780
05:31:47 7 995 106 0 S 0 96.6 792
05:34:46 7 995 115 0 O 0 96.6 800
05:37:47 7 995 127 0 SO 0 96.6 797
05:40:47 7 995 131 0 S 0 96.6 797
05:43:47 8 995 134 0 SW 0 96.6 792
05:46:47 8 995 138 0 SW 0 96.6 796
05:49:51 8 995 139 0 SW 0 96.6 805
05:52:47 8 995 143 0 SW 0 96.6 805
05:55:48 8 995 145 0 SW 0 96.6 796
05:58:44 8 995 141 0 N 0 96.6 794
06:01:48 8 995 140 0 SO 0 96.6 794
06:04:48 8 995 148 1 SO 0 96.6 805
06:07:47 8 995 158 0 SO 0 96.6 805
06:10:48 8 995 162 0 SW 0 96.6 806
06:13:48 8 995 163 0 SW 0 96.6 800
06:16:46 8 995 164 0 S 0 96.6 790
06:19:48 8 995 167 0 S 0 96.6 788
06:22:46 8 995 172 0 S 0 96.6 790
06:25:49 8 995 175 0 SO 0 96.6 796
06:28:47 8 995 175 0 S 0 96.6 809
06:31:49 8 995 177 0 SW 0 96.6 815
06:34:48 8 995 177 0 S 0 96.6 808
06:37:46 9 995 174 0 S 0 96.6 803
06:40:49 9 996 175 1 S 0 96.6 803
06:43:49 9 995 178 0 O 0 96.6 808
06:46:50 9 995 178 0 SO 0 96.6 808
06:49:46 9 996 181 0 S 0 96.6 805
06:52:48 9 995 181 0 SO 0 96.6 812
06:55:49 9 995 182 0 SO 0 96.6 805
06:58:45 9 996 183 0 S 0 96.6 791
07:01:47 9 995 182 0 S 0 96.6 753
07:04:49 9 995 183 0 SO 0 96.6 725
07:07:45 9 995 187 1 S 0 96.6 705
07:10:48 9 995 183 0 SO 0 96.6 694
07:13:51 9 995 185 1 SW 0 96.6 680
07:16:48 9 995 189 2 S 0 96.6 678
07:19:46 9 996 191 0 S 0 96.6 674
07:22:50 9 996 193 0 SW 0 96.6 675
07:25:46 9 995 194 0 S 0 96.6 669
07:28:49 9 995 196 1 NW 0 96.6 659
07:31:45 9 996 197 2 W 0 96.6 647
07:34:48 9 995 197 1 N 0 96.6 634
07:37:49 9 996 197 3 NW 0 96.6 635
07:40:51 9 996 197 0 SO 0 96.6 639
07:43:47 9 996 193 1 SW 0 96.6 639
07:46:48 9 996 196 0 NW 0 96.5 645
07:49:49 9 995 202 4 W 0 96.5 636
07:52:47 9 996 206 0 W 0 96.4 646
07:55:48 9 996 206 0 NW 0 96.3 634
07:58:48 10 996 205 1 NW 0 96.3 631
08:01:48 10 995 204 0 O 0 96.5 612
08:04:49 10 996 208 0 SW 0 96.6 607
08:07:52 10 996 208 1 NW 0 95.9 598
08:10:50 10 995 209 0 S 0 95.6 590
08:13:48 10 996 207 0 NW 0 95.5 585
08:16:46 10 996 207 3 N 0 95 580
08:19:48 10 996 206 0 S 0 94.5 574
08:22:51 10 995 201 1 NW 0 94.3 571
08:25:48 10 995 197 1 SW 0 94.2 568
08:28:50 10 996 193 1 NW 0 93.7 557
08:31:48 10 996 195 2 N 0 93.4 548
08:34:47 10 995 199 0 W 0 93 540
08:37:50 10 996 201 1 SW 0 93 545
08:40:50 10 995 207 0 W 0 93 545
08:43:48 10 996 211 1 SO 0 93.1 539
08:46:50 10 995 217 0 SO 0 93.8 534
08:49:47 11 997 216 0 S 0 93.9 530
08:52:51 11 996 214 2 SO 0 93.3 528
08:55:49 11 996 211 0 SO 0 92.8 525
08:58:49 11 996 207 0 NW 0 91.5 525
09:01:49 11 996 211 2 S 0 90.8 519
09:04:47 11 995 214 2 W 0 90.5 507
09:07:47 11 995 215 3 NW 0 90.4 501
09:10:48 11 996 215 0 SO 0 89.8 492
09:13:48 11 996 217 1 W 0 90.2 495
09:16:49 12 996 219 3 SW 0 90.1 489
09:19:46 12 996 220 2 W 0 89.9 495
09:22:47 12 996 221 4 W 0 88.4 490
09:25:53 12 996 221 4 NO 0 87 486
09:28:48 12 996 221 0 S 0 87.4 489
09:31:49 12 996 222 1 SW 0 87.9 480
09:34:48 12 996 220 0 NW 0 87.2 477
09:37:49 12 996 219 3 NW 0 87 477
09:40:50 12 996 222 0 NW 0 86.6 483
09:43:48 12 996 222 2 W 0 86.6 480
09:46:47 12 996 222 3 W 0 86.2 481
09:49:49 12 997 220 1 0 84.8 471
09:52:48 12 996 215 0 SW 0 84.4 474
09:55:51 12 997 214 4 N 0 84.3 475
09:58:50 12 997 215 2 SW 0 84.5 477
10:01:54 12 996 217 2 NW 0 84.2 466
10:04:48 12 997 217 0 SO 0 84.2 468
10:07:46 12 998 217 3 W 0 84.4 464
10:10:45 12 996 218 1 N 0 83.6 457
10:13:49 12 997 213 0 SO 0 83.4 454
10:16:47 13 996 218 1 SW 0 83 454
10:19:47 13 996 219 1 NW 0 83.6 463
10:22:48 13 997 223 1 NW 0 83.3 454
10:25:49 13 997 222 3 NW 0 82 451
10:28:49 13 997 223 2 NO 0 81.8 445
10:31:49 13 996 223 1 NW 0 82.4 448
10:34:46 13 996 223 0 W 0 81.9 451
10:37:48 13 996 225 0 O 0 83.2 451
10:40:49 13 997 225 5 SW 0 83 454
10:43:48 13 997 226 0 NO 0 82.3 454
10:46:47 14 997 226 1 SO 0 82.5 443
10:49:49 13 996 226 0 NW 0 80.7 448
10:52:48 13 997 227 1 SO 0 81.7 451
10:55:48 14 996 227 2 NW 0 82 454
10:58:48 14 997 226 2 SO 0 81.7 445
11:01:47 14 997 225 4 NW 0 78.7 436
11:04:48 13 997 227 3 SO 0 78 427
11:07:46 13 997 227 1 W 0 79.3 436
11:10:48 14 997 225 1 SO 0 79.8 433
11:13:47 14 997 221 0 S 0 80 437
11:16:48 14 997 224 7 SW 0 79.5 442
11:19:50 14 997 227 1 NW 0 79.5 440
11:22:50 14 997 227 0 NW 0 78.9 439
11:25:51 14 997 227 2 NW 0 78.5 435
11:28:48 14 998 227 3 NW 0 78.4 427
11:31:48 14 997 226 2 W 0 79 428
11:34:48 14 997 226 0 SO 0 80.1 427
11:37:46 14 997 225 2 W 0 79.1 427
11:40:49 14 997 225 0 O 0 78.5 427
11:43:48 14 998 224 2 W 0 78.8 428
11:46:45 14 998 225 3 S 0 78.6 433
11:49:47 14 997 226 0 SW 0 78.6 438
11:52:49 14 998 224 3 NW 0 78 439
11:55:47 14 997 221 0 NO 0 78 439
11:58:47 14 998 218 2 W 0 79 434
12:01:47 14 998 222 5 NW 0 76.9 434
12:04:48 14 997 223 2 S 0 75.9 433
12:07:48 14 997 224 2 NW 0 78.9 430
12:10:49 14 998 225 1 O 0 78.8 431
12:13:46 14 998 224 0 NO 0 78.1 431
12:16:46 14 996 225 1 SW 0 77.3 424
12:19:49 14 998 226 2 SW 0 76.6 424
12:22:48 14 997 226 1 W 0 75.4 424
12:25:47 14 997 227 0 S 0 74.8 427
12:28:49 15 998 227 2 W 0 76.1 430
12:31:47 15 998 227 2 NO 0 74.1 437
12:34:47 14 998 227 5 NW 0 73.1 436
12:37:47 15 997 228 2 S 0 74.6 436
12:40:48 15 998 228 3 NW 0 73.5 433
12:43:48 15 998 228 2 NO 0 73 435
12:46:47 15 998 228 5 NW 0 74.5 422
12:49:48 15 997 228 1 N 0 73.5 422
12:52:48 15 998 227 1 SW 0 72.6 427
12:55:49 15 998 228 1 NW 0 73.4 430
12:58:50 15 998 228 1 S 0 72.5 430
13:01:49 16 998 228 1 NO 0 72.4 434
13:04:49 16 998 228 0 SW 0 72.3 430
13:07:46 16 997 229 1 S 0 72.9 425
13:10:47 16 997 229 0 S 0 69.6 421
13:13:51 16 997 229 0 SO 0 69.6 419
13:16:50 16 998 229 2 NW 0 68.1 425
13:19:47 16 997 229 3 NW 0 68.2 421
13:22:49 16 997 229 1 NW 0 69 422
13:25:46 16 997 228 5 N 0 66.5 422
13:28:47 15 998 232 0 O 0 66.1 430
13:31:47 15 997 231 2 S 0 66 431
13:34:47 15 998 230 1 NO 0 67.6 427
13:37:47 16 997 230 2 NW 0 67.9 424
13:40:50 16 998 229 6 SW 0 64.9 427
13:43:48 16 997 230 0 NO 0 64.4 427
13:46:46 16 997 230 5 S 0 65.5 425
13:49:48 16 998 232 3 NW 0 63.7 421
13:52:47 16 997 231 2 NO 0 63.4 418
13:55:48 16 998 233 3 W 0 63.1 424
13:58:46 16 997 235 6 S 0 64 425
14:01:49 16 998 235 1 NW 0 65 430
14:04:48 17 997 235 5 S 0 64.8 427
14:07:49 17 997 235 2 SO 0 61 425
14:10:49 18 998 235 2 SO 0 59.6 424
14:13:48 18 998 234 3 NW 0 58.2 422
14:16:48 17 998 235 5 NW 0 56.6 422
14:19:48 17 997 234 3 N 0 56.6 418
14:22:48 17 998 234 2 S 0 57.7 421
14:25:48 17 997 235 1 NW 0 58.7 424
14:28:49 18 998 234 3 SW 0 58.9 424
14:31:47 18 998 234 3 N 0 55.7 422
14:34:49 17 998 233 4 NW 0 54.8 424
14:37:49 17 998 230 2 NW 0 55.3 424
14:40:47 17 998 228 1 W 0 57.6 421
14:43:48 17 997 227 0 NW 0 58.1 413
14:46:47 17 998 227 1 SW 0 58.4 416
14:49:48 17 997 227 3 NW 0 58.6 416
14:52:48 17 998 229 0 S 0 59.5 419
14:55:47 17 998 231 1 NW 0 59.1 421
14:58:47 17 998 231 4 W 0 57.1 419
15:01:32 16 998 232 3 NW 0 50.1 415
15:04:48 17 998 232 6 S 0 56 419
15:07:46 17 998 233 1 O 0 55.5 413
15:10:46 17 997 233 2 S 0 56.5 416
15:13:47 17 998 235 1 W 0 55.4 410
15:16:46 17 998 231 4 SO 0 56.3 416
15:19:48 17 998 229 1 S 0 54.1 413
15:22:46 17 998 231 1 S 0 53.6 416
15:25:48 17 998 237 1 S 0 55.4 414
15:28:47 17 998 241 4 N 0 57.8 413
15:31:33 16 998 238 1 NO 0 46.6 411
15:34:48 18 998 237 4 SO 0 51.6 413
15:37:47 18 998 243 0 SO 0 54 410
15:40:47 19 998 242 3 S 0 52.9 410
15:43:46 19 998 235 5 NW 0 52.7 413
15:46:48 19 998 234 1 NW 0 52.5 413
15:49:46 18 998 230 3 W 0 52.9 411
15:52:47 18 998 231 1 W 0 54.6 404
15:55:47 16 998 227 6 NO 0 55.4 407
15:58:49 15 998 210 12 W 0 58.7 416
16:01:32 16 998 210 8 N 0 45.5 419
16:04:48 13 998 208 2 SO 0 62.6 423
16:07:47 13 998 205 7 W 0 64.9 430
16:10:50 12 998 214 2 NO 0 66.2 428
16:13:47 12 998 210 6 0 66.7 431
16:16:48 12 998 214 8 NW 0 67.7 418
16:19:48 13 998 214 7 NW 0 68.1 418
16:22:48 13 998 215 5 NW 0 68.5 419
16:25:47 13 998 217 12 N 0 68 424
16:28:50 13 998 222 2 W 0 66.2 419
16:31:49 13 998 226 2 NW 0 65.9 419
16:34:48 13 998 228 1 NW 0 67.4 413
16:37:49 14 998 225 4 O 0 66.1 416
16:40:50 15 998 220 4 W 0 65.6 410
16:43:44 15 998 218 0 0 65.5 410
16:46:48 15 998 218 2 NW 0 65.2 407
16:49:47 15 998 219 0 SO 0 64.5 410
16:52:48 15 998 219 0 NO 0 65.4 410
16:55:48 15 998 223 3 S 0 65.8 408
16:58:47 15 998 223 0 N 0 65.5 407
17:01:47 15 998 223 0 S 0 65.6 407
17:04:48 16 998 222 0 SO 0 63.8 407
17:07:48 16 998 221 0 NW 0 63.5 407
17:10:46 16 998 222 2 S 0 63.6 407
17:13:48 16 998 225 1 SW 0 63.2 410
17:16:48 16 998 227 2 SW 0 63 407
17:19:48 16 998 227 2 W 0 62.4 409
17:22:47 16 998 226 0 S 0 63 408
17:25:46 16 998 225 4 S 0 61.8 404
17:28:49 16 998 224 0 SO 0 60.8 404
17:31:48 16 998 223 0 SO 0 60.8 401
17:34:50 16 998 223 0 S 0 61.6 407
17:37:49 16 998 223 0 S 0 61.1 404
17:40:49 16 998 221 3 SW 0 61.1 405
17:43:46 16 998 220 0 O 0 60.1 404
17:46:48 16 998 220 0 SO 0 60.8 407
17:49:49 16 998 219 3 NW 0 60.7 404
17:52:47 15 998 217 0 SW 0 61.3 408
17:55:49 15 998 216 3 SO 0 62 407
17:58:47 15 998 216 0 S 0 62.3 410
18:01:49 15 998 215 0 SO 0 62.6 404
18:04:48 15 998 214 1 NW 0 62.3 404
18:07:48 15 998 215 1 W 0 62.5 404
18:10:49 15 998 215 2 NW 0 63 409
18:13:49 15 998 214 0 SO 0 63.5 407
18:16:49 14 998 212 1 S 0 62.4 405
18:19:47 14 998 208 0 O 0 62.5 410
18:22:45 14 998 208 0 O 0 63.5 407
18:25:47 14 998 208 0 SO 0 64.5 409
18:28:47 14 998 207 0 S 0 64.4 406
18:31:48 14 998 207 0 SO 0 65 404
18:34:49 14 998 206 1 NW 0 64.6 410
18:37:48 14 998 204 1 NW 0 64.8 413
18:40:49 14 998 204 1 NW 0 64.8 414
18:43:49 14 998 154 1 NW 0 65.5 413
18:46:46 14 998 169 0 S 0 65.4 413
18:49:50 14 998 203 1 NW 0 65.1 419
18:52:49 14 998 202 0 SW 0 65.3 413
18:55:48 14 998 200 0 O 0 66.1 413
18:58:49 14 998 195 1 SW 0 66.7 416
19:01:50 14 998 192 1 SW 0 66.6 434
19:04:48 14 998 191 1 SO 0 66.4 448
19:07:47 14 998 142 0 SO 0 67.4 457
19:10:48 14 998 189 0 S 0 67.8 451
19:13:48 14 998 188 0 S 0 67.7 460
19:16:50 14 998 189 0 O 0 68.6 478
19:19:47 14 998 188 0 S 0 68.7 490
19:22:49 14 998 187 0 SO 0 68.1 491
19:25:47 13 998 186 2 W 0 68.2 483
19:28:47 13 998 184 0 W 0 68.3 487
19:31:48 13 998 184 0 W 0 68.4 498
19:34:48 13 998 182 0 SO 0 69 503
19:37:48 13 998 175 0 SO 0 69.3 513
19:40:51 13 998 169 0 SO 0 69.2 513
19:43:49 13 998 164 0 NW 0 69.2 518
19:46:48 13 998 166 0 NW 0 69.2 521
19:49:49 13 998 169 0 SO 0 69.1 526
19:52:47 13 998 171 3 W 0 69.4 527
19:55:47 13 998 171 0 S 0 70 530
19:58:49 12 998 172 0 W 0 70.8 530
20:01:48 12 998 170 1 NW 0 70.9 531
20:04:50 12 998 167 1 NW 0 70.7 533
20:07:50 12 998 162 1 NW 0 70.7 539
20:10:49 12 998 154 0 NW 0 71 550
20:13:50 12 998 150 0 NW 0 71.9 550
20:16:49 12 998 142 0 NW 0 72.3 557
20:19:50 12 998 140 0 NW 0 72.6 560
20:22:48 12 998 137 0 NW 0 72.5 560
20:25:49 12 998 134 0 NW 0 72.9 557
20:28:48 12 998 130 0 NW 0 73.7 556
20:31:48 12 998 125 0 NW 0 74.3 563
20:34:49 12 998 123 0 NW 0 74.7 565
20:37:49 12 998 123 0 NW 0 74.6 568
20:40:48 11 998 121 0 NW 0 74.7 562
20:43:48 11 998 116 0 NW 0 75 562
20:46:49 11 998 110 0 NW 0 75.2 566
20:49:50 11 998 109 0 NW 0 75 580
20:52:47 11 998 107 0 NW 0 75.4 579
20:55:51 11 998 100 0 NW 0 75.5 581
20:58:47 11 998 91 0 NW 0 75.6 579
21:01:49 11 998 84 0 S 0 75.6 583
21:04:46 11 999 78 0 S 0 75.5 584
21:07:47 11 998 72 0 S 0 75.4 589
21:10:46 11 998 63 0 S 0 76.1 577
21:13:49 11 998 54 0 S 0 76.8 581
21:16:46 11 998 48 0 S 0 77 578
21:19:45 11 998 42 0 S 0 77.2 591
21:22:48 11 998 36 0 S 0 77.5 597
21:25:47 11 999 32 0 S 0 77.9 592
21:28:47 10 998 29 0 S 0 78.2 590
21:31:47 10 998 25 0 S 0 78.3 586
21:34:48 10 998 21 0 S 0 78.4 591
21:37:48 10 998 17 0 S 0 78.5 582
21:40:46 10 999 14 0 S 0 78.7 584
21:43:49 10 998 12 0 S 0 78.6 577
21:46:47 10 999 10 0 S 0 78.5 581
21:49:46 10 998 8 0 S 0 78.4 580
21:52:47 10 998 7 0 S 0 78.4 581
21:55:46 10 998 5 0 S 0 78.4 574
21:58:45 10 998 4 0 S 0 78.7 574
22:01:46 10 999 4 0 S 0 79 579
22:04:47 10 998 3 0 S 0 79 586
22:07:47 10 999 3 0 S 0 78.8 589
22:10:47 10 998 3 0 S 0 78.8 598
22:13:48 10 999 3 0 0 79 594
22:16:47 10 999 3 0 0 79.5 601
22:19:48 10 999 3 0 S 0 79.9 603
22:22:45 10 999 3 0 0 80.1 612
22:25:49 10 999 0 0 S 0 80.2 612
22:28:47 9 998 0 0 0 80.2 609
22:31:45 9 999 0 0 0 80.3 615
22:34:46 9 999 0 0 0 80.6 609
22:37:45 9 999 0 0 0 81 618
22:40:48 9 998 0 0 0 81.8 624
22:43:48 9 999 0 0 S 0 82.1 644
22:46:46 9 999 0 0 0 82 653
22:49:47 8 999 0 0 0 81.9 659
22:52:46 8 999 0 0 0 82.1 654
22:55:47 8 998 0 0 0 82.5 650
22:58:48 8 999 0 0 0 82.9 653
23:02:04 8 999 0 0 0 83.3 663
23:04:48 8 999 0 0 S 0 84.1 665
23:07:48 8 998 0 0 0 84.9 664
23:10:46 8 999 0 0 0 85.2 668
23:13:46 8 999 0 0 0 85.7 666
23:16:46 8 999 0 0 0 86.3 666
23:19:44 7 999 0 0 0 86.5 673
23:22:50 7 999 0 0 0 86.8 683
23:25:47 7 999 0 0 S 0 87.7 691
23:28:46 7 999 0 0 0 88.1 691
23:31:46 7 999 0 0 S 0 88.1 692
23:34:47 7 999 0 0 SO 0 88.3 701
23:37:48 7 999 0 0 0 88.8 715
23:40:46 7 999 0 0 0 89.3 712
23:43:47 7 999 0 0 S 0 89.4 713
23:46:45 6 999 0 0 S 0 89.4 706
23:49:46 6 999 0 0 0 89.4 709
23:52:45 6 999 0 0 0 89.8 709
23:55:46 6 999 0 0 S 0 90.4 700
23:58:46 6 999 0 0 0 90.8 698

Letzte Änderung : 04-Jan-2022
Copyright Jens Köhler, Wolfsburg, Obere Dorfstraße 10d